Powrót do katalogu

THOR ABLESTAR DEB

AktywnyPO
NORAD 3592·DEBRIS·🇺🇸 United States

Wystrzelony Jun 24, 1965 z Vandenberg Space Force Base

Loading…

Następne Przeloty (najbliższe 24 godziny)

TLE

ŚwieżeSource: Space-Track

Epoka: Sep 14, 2026, 08:36 UTC

1 03592U 65048F   26257.35847567  .00000189  00000-0  22575-3 0  9991
2 03592  89.8698 286.5713 0062086  59.4306 314.8799 13.62750157 32104

Śledź THOR ABLESTAR DEB w czasie rzeczywistym z AllMySat

Download on the App Store